Weather History for KTWF - February, 2013

Change the Weather History Date:

Tuesday, February 26, 2013

  Actual Average Record
Temperature  
Mean Temperature 28 °F -  
Max Temperature 34 °F 47 °F 67 °F (1986)
Min Temperature 21 °F 26 °F 2 °F (2011)
Degree Days  
Heating Degree Days 37 29  
Month to date heating degree days 811 842  
Since 1 July heating degree days 4230 4510  
Cooling Degree Days 0 0  
Month to date cooling degree days 0 0  
Year to date cooling degree days 0 0  
Moisture  
Dew Point 18 °F    
Average Humidity 66    
Maximum Humidity 81    
Minimum Humidity 51    
Precipitation  
Precipitation 0.00 in 0.03 in 0.33 in (2004)
Month to date precipitation 0.79 0.76  
Year to date precipitation 0.93 1.74  
Sea Level Pressure  
Sea Level Pressure 30.22 in    
Wind  
Wind Speed 16 mph (WSW)    
Max Wind Speed 26 mph    
Max Gust Speed 32 mph    
Visibility 10 miles    
Events      
T = Trace of Precipitation, MM = Missing Value Source: NWS Daily Summary

Daily Weather History Graph

Daily Weather History Graph

Search for Another Location

Airport or City:

Trip Planner

Search our weather history database for the weather conditions in past years. The results will help you decide how hot, cold, wet, or windy it might be!

Date:

Astronomy

Feb. 26, 2013 Rise Set
Actual Time 7:17 AM MST 6:24 PM MST
Civil Twilight 6:49 AM MST 6:52 PM MST
Nautical Twilight 6:16 AM MST 7:25 PM MST
Astronomical Twilight 5:44 AM MST 7:58 PM MST
Moon 7:48 PM MST (2/26) 7:20 AM MST (2/26)
Length of Visible Light 12h 03m
Length of Day
11h 06m
Full, 99% of the Moon is Illuminated
Feb 26
Full
Mar 4
Last Quarter
Mar 11
New
Mar 19
First Quarter
Mar 27
Full

Hourly Weather History & Observations

Time (MST) Temp. Windchill Dew Point Humidity Pressure Visibility Wind Dir Wind Speed Gust Speed Precip Events Conditions
12:06 AM 30.2 °F 16.8 °F 24.8 °F 80% 30.07 in 10.0 mi West 23.0 mph 28.8 mph N/A   Mostly Cloudy
12:17 AM 30.2 °F 16.2 °F 24.8 °F 80% 30.06 in 10.0 mi West 25.3 mph 29.9 mph N/A   Overcast
12:37 AM 28.4 °F 15.1 °F 23.0 °F 80% 30.05 in 10.0 mi WSW 20.7 mph - N/A   Scattered Clouds
12:53 AM 28.9 °F 15.8 °F 23.0 °F 78% 30.08 in 10.0 mi WSW 20.7 mph - N/A   Scattered Clouds
1:53 AM 28.9 °F 16.5 °F 21.9 °F 75% 30.10 in 10.0 mi WSW 18.4 mph - N/A   Mostly Cloudy
2:29 AM 28.4 °F 15.8 °F 21.2 °F 74% 30.09 in 10.0 mi WSW 18.4 mph 26.5 mph N/A   Mostly Cloudy
2:43 AM 28.4 °F 15.4 °F 21.2 °F 74% 30.08 in 10.0 mi WSW 19.6 mph - N/A   Scattered Clouds
2:53 AM 27.0 °F 13.5 °F 21.0 °F 78% 30.11 in 10.0 mi WSW 19.6 mph - N/A   Partly Cloudy
3:53 AM 26.1 °F 12.3 °F 21.0 °F 81% 30.14 in 10.0 mi WSW 19.6 mph - N/A   Clear
4:14 AM 26.6 °F 11.7 °F 21.2 °F 80% 30.11 in 10.0 mi WSW 24.2 mph 29.9 mph N/A   Mostly Cloudy
4:49 AM 26.6 °F 12.0 °F 21.2 °F 80% 30.12 in 9.0 mi WSW 23.0 mph 32.2 mph N/A   Scattered Clouds
4:53 AM 26.1 °F 12.3 °F 21.0 °F 81% 30.15 in 10.0 mi WSW 19.6 mph 32.2 mph N/A   Partly Cloudy
5:53 AM 25.0 °F 10.9 °F 19.0 °F 78% 30.18 in 10.0 mi WSW 19.6 mph - N/A   Clear
6:53 AM 24.1 °F 9.8 °F 17.1 °F 75% 30.22 in 10.0 mi WSW 19.6 mph - N/A   Clear
7:53 AM 24.1 °F 10.1 °F 16.0 °F 71% 30.23 in 10.0 mi SW 18.4 mph - N/A   Clear
8:53 AM 25.0 °F 10.6 °F 15.1 °F 66% 30.26 in 10.0 mi SW 20.7 mph - N/A   Clear
9:53 AM 28.9 °F 15.4 °F 18.0 °F 64% 30.27 in 10.0 mi WSW 21.9 mph 27.6 mph N/A   Clear
10:53 AM 30.9 °F 18.1 °F 18.0 °F 59% 30.28 in 10.0 mi West 21.9 mph 27.6 mph N/A   Clear
11:14 AM 30.2 °F 17.8 °F 19.4 °F 64% 30.25 in 10.0 mi WSW 19.6 mph 26.5 mph N/A   Mostly Cloudy
11:53 AM 30.9 °F 19.1 °F 18.0 °F 59% 30.30 in 10.0 mi West 18.4 mph - N/A   Overcast
12:05 PM 32.0 °F 21.2 °F 19.4 °F 60% 30.26 in 10.0 mi West 16.1 mph - N/A   Overcast
12:53 PM 33.1 °F 22.2 °F 18.0 °F 54% 30.30 in 10.0 mi West 17.3 mph - N/A   Overcast
1:53 PM 32.0 °F 22.1 °F 17.1 °F 54% 30.29 in 10.0 mi WSW 13.8 mph - N/A   Mostly Cloudy
2:53 PM 32.0 °F 22.1 °F 17.1 °F 54% 30.29 in 10.0 mi West 13.8 mph - N/A   Mostly Cloudy
3:53 PM 33.1 °F 24.4 °F 17.1 °F 52% 30.30 in 10.0 mi SW 11.5 mph - N/A   Mostly Cloudy
4:53 PM 33.1 °F 26.1 °F 18.0 °F 54% 30.30 in 10.0 mi WSW 8.1 mph - N/A   Partly Cloudy
5:53 PM 30.0 °F 23.2 °F 17.1 °F 59% 30.31 in 10.0 mi SSW 6.9 mph - N/A   Clear
6:53 PM 27.0 °F 17.3 °F 16.0 °F 63% 30.33 in 10.0 mi SSW 10.4 mph - N/A   Clear
7:53 PM 23.0 °F 11.7 °F 14.0 °F 68% 30.35 in 10.0 mi South 11.5 mph - N/A   Clear
8:53 PM 23.0 °F 11.7 °F 12.0 °F 63% 30.35 in 10.0 mi South 11.5 mph - N/A   Clear
9:53 PM 24.1 °F 13.1 °F 12.0 °F 60% 30.35 in 10.0 mi South 11.5 mph - N/A   Clear
10:53 PM 24.1 °F 13.7 °F 10.9 °F 57% 30.34 in 10.0 mi South 10.4 mph - N/A   Clear
11:53 PM 21.0 °F 8.6 °F 10.0 °F 63% 30.35 in 10.0 mi South 12.7 mph - N/A   Clear